This is the latest recevied weather packets stored in our database for station/object JI6FPP-13. If no packets are shown the sender has not sent any weather packets the latest 10 day(s).
| Time | Temp. | Humidity | Pressure | Rain* | Wind** | Luminosity | Snow |
|---|---|---|---|---|---|---|---|
| 1777596380 | 23.89° C | 15% | 1004 hPa | 0 mm | - | - | - |
| 1777595780 | 23.89° C | 22% | 1005 hPa | 0 mm | - | - | - |
| 1777595180 | 23.33° C | 22% | 1005 hPa | 0 mm | - | - | - |
| 1777594580 | 23.33° C | 27% | 1004 hPa | 0 mm | - | - | - |
| 1777593979 | 22.78° C | 33% | 1004 hPa | 0 mm | - | - | - |
| 1777593378 | 21.67° C | 34% | 1004 hPa | 0 mm | - | - | - |
| 1777592779 | 20.56° C | 37% | 1004 hPa | 0 mm | - | - | - |
| 1777592178 | 19.44° C | 40% | 1005 hPa | 0 mm | - | - | - |
| 1777591578 | 18.33° C | 42% | 1005 hPa | 0 mm | - | - | - |
| 1777590979 | 18.33° C | 44% | 1005 hPa | 0 mm | - | - | - |
| 1777590379 | 17.78° C | 54% | 1005 hPa | 0 mm | - | - | - |
| 1777589779 | 16.67° C | 64% | 1005 hPa | 0 mm | - | - | - |
| 1777589180 | 15° C | 72% | 1005 hPa | 0 mm | - | - | - |
| 1777588580 | 14.44° C | 74% | 1004 hPa | 0 mm | - | - | - |
| 1777587980 | 13.89° C | 75% | 1004 hPa | 0 mm | - | - | - |
| 1777587379 | 13.89° C | 76% | 1004 hPa | 0 mm | - | - | - |
| 1777586779 | 13.89° C | 78% | 1004 hPa | 0 mm | - | - | - |
| 1777586180 | 13.33° C | 78% | 1004 hPa | 0 mm | - | - | - |
| 1777585580 | 13.33° C | 79% | 1004 hPa | 0 mm | - | - | - |
| 1777584978 | 13.33° C | 79% | 1003 hPa | 0 mm | - | - | - |
| 1777584379 | 13.33° C | 80% | 1003 hPa | 0 mm | - | - | - |
| 1777583779 | 13.33° C | 80% | 1003 hPa | 0 mm | - | - | - |
| 1777583179 | 13.33° C | 80% | 1003 hPa | 0 mm | - | - | - |
| 1777582580 | 13.33° C | 80% | 1003 hPa | 0 mm | - | - | - |
| 1777581979 | 13.33° C | 80% | 1003 hPa | 0 mm | - | - | - |
* Rain latest hour (hover to see other rain measurements)
** Current wind speed in m/s (hover to see current wind gust speed)